Location: Quedlinburg
(51.7921°N, 11.1414°E)
Time: 08:37:39
(UTC+02:00)

SO-50 - Pass Details

Date: 09 March 2026
Orbit: 567 x 673 km, 64.6° (Epoch: 13 April)

Event Time Altitude Azimuth Distance (km) Brightness Sun altitude
Rises 22:32:40 0° 270° (W) 2,975 ? -36.9°
Reaches altitude 10° 22:35:21 10° 285° (WNW) 2,080 ? -37.2°
Enters shadow 22:36:27 15° 295° (WNW) 1,775 ? -37.3°
